Location: Newark
(52.0167°N, 6.1333°E)
Time: 14:14:35
(UTC+00:00)

N. Korean satellite - Visible Passes

Search period start: 20 September 2019 00:00
Search period end: 30 September 2019 00:00
Orbit: 455 x 509 km, 97.2° (Epoch: 20 September)

Date Brightness Start Highest point End Pass type
(mag) Time Alt. Az. Time Alt. Az. Time Alt. Az.
21 Sep 10.0 04:34:11 10° ENE 04:35:59 14° E 04:37:47 10° ESE visible
24 Sep 9.6 04:51:12 10° NE 04:53:51 21° E 04:56:30 10° SE visible
25 Sep 10.3 04:27:11 10° ENE 04:28:23 11° E 04:29:34 10° ESE visible
28 Sep 9.8 04:43:51 10° NE 04:46:14 17° E 04:48:38 10° SE visible
